Weather History for KTEB - August, 2013

Change the Weather History Date:

Sunday, August 18, 2013

  Actual Average Record
Temperature  
Mean Temperature 70 °F -  
Max Temperature 77 °F 82 °F 95 °F (2002)
Min Temperature 64 °F 63 °F 26 °F (2003)
Cooling Degree Days 6    
Growing Degree Days 20 (Base 50)    
Moisture  
Dew Point 57 °F    
Average Humidity 61    
Maximum Humidity 81    
Minimum Humidity 48    
Precipitation  
Precipitation 0.00 in - - ()
Sea Level Pressure  
Sea Level Pressure 30.20 in    
Wind  
Wind Speed 2 mph (ENE)    
Max Wind Speed 6 mph    
Max Gust Speed -    
Visibility 10 miles    
Events Rain    
Averages and records for this station are not official NWS values.
T = Trace of Precipitation, MM = Missing Value Source: NWS Daily Summary

Daily Weather History Graph

Daily Weather History Graph

Search for Another Location

Airport or City:

Trip Planner

Search our weather history database for the weather conditions in past years. The results will help you decide how hot, cold, wet, or windy it might be!

Date:

Astronomy

Aug. 18, 2013 Rise Set
Actual Time 6:09 AM EDT 7:49 PM EDT
Civil Twilight 5:40 AM EDT 8:18 PM EDT
Nautical Twilight 5:04 AM EDT 8:54 PM EDT
Astronomical Twilight 4:27 AM EDT 9:31 PM EDT
Moon 5:54 PM EDT (8/18) 3:15 AM EDT (8/18)
Length of Visible Light 14h 38m
Length of Day
13h 40m
Waxing Gibbous, 92% of the Moon is Illuminated
Aug 18
Waxing Gibbous
Aug 20
Full
Aug 28
Last Quarter
Sep 5
New
Sep 12
First Quarter

Hourly Weather History & Observations

Time (EDT) Temp. Dew Point Humidity Pressure Visibility Wind Dir Wind Speed Gust Speed Precip Events Conditions
12:51 AM 69.1 °F 57.0 °F 65% 30.25 in 10.0 mi Calm Calm - N/A   Clear
1:51 AM 68.0 °F 55.9 °F 65% 30.24 in 10.0 mi Calm Calm - N/A   Clear
2:51 AM 68.0 °F 55.9 °F 65% 30.24 in 10.0 mi NNE 3.5 mph - N/A   Clear
3:51 AM 66.0 °F 57.0 °F 73% 30.24 in 10.0 mi Calm Calm - N/A   Clear
4:51 AM 66.0 °F 57.9 °F 75% 30.23 in 10.0 mi North 3.5 mph - N/A   Clear
5:51 AM 64.9 °F 59.0 °F 81% 30.24 in 10.0 mi Calm Calm - N/A   Clear
6:51 AM 64.9 °F 59.0 °F 81% 30.25 in 10.0 mi Calm Calm - N/A   Clear
7:51 AM 68.0 °F 60.1 °F 76% 30.25 in 10.0 mi North 3.5 mph - N/A   Clear
8:51 AM 71.1 °F 61.0 °F 70% 30.25 in 10.0 mi Calm Calm - N/A   Clear
9:51 AM 73.0 °F 59.0 °F 61% 30.25 in 10.0 mi Calm Calm - N/A   Clear
10:51 AM 75.0 °F 59.0 °F 57% 30.24 in 10.0 mi East 3.5 mph - N/A   Clear
11:51 AM 75.0 °F 55.9 °F 51% 30.24 in 10.0 mi Variable 4.6 mph - N/A   Clear
12:51 PM 75.9 °F 55.9 °F 50% 30.23 in 10.0 mi East 5.8 mph - N/A   Overcast
1:51 PM 77.0 °F 55.9 °F 48% 30.20 in 10.0 mi NE 5.8 mph - 0.00 in   Light Drizzle
2:51 PM 75.9 °F 55.0 °F 48% 30.17 in 10.0 mi East 3.5 mph - 0.00 in Rain Light Rain
3:51 PM 75.9 °F 55.9 °F 50% 30.15 in 10.0 mi ENE 5.8 mph - 0.00 in Rain Light Rain
4:51 PM 75.0 °F 55.9 °F 51% 30.14 in 10.0 mi East 5.8 mph - 0.00 in Rain Light Rain
5:51 PM 73.0 °F 55.9 °F 55% 30.14 in 10.0 mi ENE 3.5 mph - 0.00 in   Scattered Clouds
6:51 PM 73.0 °F 53.1 °F 49% 30.13 in 10.0 mi Calm Calm - N/A   Partly Cloudy
7:51 PM 73.0 °F 53.1 °F 49% 30.14 in 10.0 mi Calm Calm - N/A   Clear
8:51 PM 72.0 °F 53.1 °F 51% 30.14 in 10.0 mi Calm Calm - N/A   Clear
9:51 PM 70.0 °F 54.0 °F 57% 30.14 in 10.0 mi Calm Calm - N/A   Clear
10:51 PM 68.0 °F 57.9 °F 70% 30.14 in 10.0 mi SSW 3.5 mph - N/A   Clear
11:51 PM 66.9 °F 57.9 °F 73% 30.13 in 10.0 mi Calm Calm - N/A   Clear